TimeCST,TemperatureF,Dew PointF,Humidity,Sea Level PressureIn,VisibilityMPH,Wind Direction,Wind SpeedMPH,Gust SpeedMPH,PrecipitationIn,Events,Conditions,WindDirDegrees,DateUTC
12:15 AM,53.6,48.2,82,29.88,10.0,South,6.9,-,N/A,,Clear,180,2013-01-12 06:15:00
12:35 AM,51.8,48.2,88,29.89,10.0,South,5.8,-,N/A,,Clear,170,2013-01-12 06:35:00
12:55 AM,51.8,48.2,88,29.88,10.0,SSE,6.9,-,N/A,,Clear,160,2013-01-12 06:55:00
1:15 AM,51.8,48.2,88,29.89,10.0,South,5.8,-,N/A,,Clear,170,2013-01-12 07:15:00
1:35 AM,51.8,48.2,88,29.90,10.0,South,5.8,-,N/A,,Clear,170,2013-01-12 07:35:00
1:55 AM,50.0,46.4,87,29.90,10.0,South,5.8,-,N/A,,Clear,170,2013-01-12 07:55:00
2:15 AM,51.8,48.2,88,29.90,10.0,South,4.6,-,N/A,,Clear,170,2013-01-12 08:15:00
2:35 AM,51.8,48.2,88,29.90,10.0,South,6.9,-,N/A,,Clear,180,2013-01-12 08:35:00
2:55 AM,51.8,48.2,88,29.90,10.0,South,6.9,-,N/A,,Clear,180,2013-01-12 08:55:00
3:15 AM,51.8,48.2,88,29.90,10.0,South,6.9,-,N/A,,Clear,180,2013-01-12 09:15:00
3:35 AM,51.8,50.0,94,29.89,10.0,South,6.9,-,N/A,,Clear,170,2013-01-12 09:35:00
3:55 AM,51.8,51.8,100,29.89,10.0,South,6.9,-,N/A,,Clear,180,2013-01-12 09:55:00
4:15 AM,51.8,51.8,100,29.89,10.0,South,4.6,-,N/A,,Clear,180,2013-01-12 10:15:00
4:35 AM,51.8,51.8,100,29.89,10.0,South,5.8,-,N/A,,Clear,180,2013-01-12 10:35:00
4:55 AM,51.8,51.8,100,29.90,10.0,South,4.6,-,N/A,,Clear,170,2013-01-12 10:55:00
5:15 AM,51.8,51.8,100,29.90,10.0,SSE,3.5,-,N/A,,Clear,160,2013-01-12 11:15:00
5:35 AM,51.8,51.8,100,29.92,10.0,Calm,Calm,-,N/A,,Clear,0,2013-01-12 11:35:00
5:55 AM,50.0,50.0,100,29.92,7.0,Calm,Calm,-,N/A,,Clear,0,2013-01-12 11:55:00
6:15 AM,50.0,50.0,100,29.92,7.0,SSE,3.5,-,N/A,,Clear,150,2013-01-12 12:15:00
6:35 AM,51.8,51.8,100,29.93,7.0,SSE,3.5,-,N/A,,Clear,160,2013-01-12 12:35:00
6:55 AM,51.8,51.8,100,29.94,7.0,South,3.5,-,N/A,,Clear,170,2013-01-12 12:55:00
7:15 AM,51.8,51.8,100,29.94,7.0,South,3.5,-,N/A,,Clear,170,2013-01-12 13:15:00
7:35 AM,51.8,51.8,100,29.95,7.0,South,4.6,-,N/A,,Clear,170,2013-01-12 13:35:00
7:55 AM,53.6,53.6,100,29.96,5.0,South,3.5,-,N/A,,Clear,170,2013-01-12 13:55:00
8:15 AM,53.6,53.6,100,29.97,5.0,South,3.5,-,N/A,,Clear,170,2013-01-12 14:15:00
8:35 AM,55.4,55.4,100,29.96,7.0,South,3.5,-,N/A,,Clear,170,2013-01-12 14:35:00
8:55 AM,57.2,57.2,100,29.96,7.0,South,3.5,-,N/A,,Clear,180,2013-01-12 14:55:00
9:15 AM,57.2,57.2,100,29.97,7.0,SSW,3.5,-,N/A,,Clear,200,2013-01-12 15:15:00
9:35 AM,57.2,57.2,100,29.96,7.0,Calm,Calm,-,N/A,,Clear,0,2013-01-12 15:35:00
9:55 AM,59.0,57.2,94,29.96,10.0,Calm,Calm,-,N/A,,Clear,0,2013-01-12 15:55:00
10:15 AM,60.8,57.2,88,29.97,10.0,SSW,3.5,-,N/A,,Clear,200,2013-01-12 16:15:00
10:35 AM,62.6,57.2,82,29.96,10.0,SSW,4.6,-,N/A,,Clear,210,2013-01-12 16:35:00
10:55 AM,62.6,57.2,82,29.96,10.0,SSW,3.5,-,N/A,,Scattered Clouds,210,2013-01-12 16:55:00
11:15 AM,64.4,55.4,73,29.95,10.0,Calm,Calm,-,N/A,,Overcast,0,2013-01-12 17:15:00
11:35 AM,64.4,57.2,77,29.94,10.0,Calm,Calm,-,N/A,,Mostly Cloudy,0,2013-01-12 17:35:00
11:55 AM,64.4,55.4,73,29.92,10.0,Calm,Calm,-,N/A,,Mostly Cloudy,0,2013-01-12 17:55:00
12:15 PM,64.4,55.4,73,29.91,10.0,Calm,Calm,-,N/A,,Mostly Cloudy,0,2013-01-12 18:15:00
12:35 PM,62.6,55.4,77,29.90,10.0,Calm,Calm,-,N/A,,Mostly Cloudy,0,2013-01-12 18:35:00
12:55 PM,62.6,55.4,77,29.91,10.0,Calm,Calm,-,N/A,,Overcast,0,2013-01-12 18:55:00
1:15 PM,62.6,55.4,77,29.91,10.0,ESE,3.5,-,N/A,,Overcast,110,2013-01-12 19:15:00
1:35 PM,62.6,57.2,82,29.88,10.0,East,5.8,-,N/A,,Overcast,100,2013-01-12 19:35:00
1:55 PM,62.6,55.4,77,29.89,10.0,Calm,Calm,-,N/A,,Overcast,0,2013-01-12 19:55:00
2:15 PM,62.6,55.4,77,29.88,10.0,Calm,Calm,-,N/A,,Overcast,0,2013-01-12 20:15:00
2:35 PM,62.6,55.4,77,29.87,10.0,East,3.5,-,N/A,Rain,Rain,80,2013-01-12 20:35:00
2:55 PM,60.8,57.2,88,29.87,2.5,East,3.5,-,0.04,Rain,Rain,100,2013-01-12 20:55:00
3:15 PM,59.0,59.0,100,29.89,5.0,Calm,Calm,-,0.10,Rain,Heavy Rain,0,2013-01-12 21:15:00
3:35 PM,57.2,57.2,100,29.87,5.0,North,4.6,-,0.17,Rain,Rain,350,2013-01-12 21:35:00
3:55 PM,57.2,57.2,100,29.85,7.0,NNE,5.8,-,0.02,Rain,Rain,20,2013-01-12 21:55:00
4:15 PM,57.2,57.2,100,29.84,7.0,NNE,8.1,-,0.08,Rain,Rain,20,2013-01-12 22:15:00
4:35 PM,57.2,57.2,100,29.83,10.0,NNE,8.1,-,0.10,Rain,Light Rain,30,2013-01-12 22:35:00
4:55 PM,57.2,57.2,100,29.82,7.0,NNE,9.2,-,N/A,Rain,Rain,20,2013-01-12 22:55:00
5:15 PM,57.2,57.2,100,29.82,10.0,NNE,6.9,-,0.02,Rain,Light Rain,20,2013-01-12 23:15:00
5:35 PM,57.2,57.2,100,29.77,7.0,NE,11.5,-,N/A,Rain,Rain,50,2013-01-12 23:35:00
5:55 PM,57.2,57.2,100,29.79,7.0,NE,8.1,-,N/A,Rain,Light Rain,50,2013-01-12 23:55:00
6:15 PM,57.2,57.2,100,29.79,7.0,NNW,3.5,-,0.04,Rain-Thunderstorm,Rain,340,2013-01-13 00:15:00
6:35 PM,57.2,57.2,100,29.75,5.0,NNE,8.1,-,0.15,Rain-Thunderstorm,Heavy Thunderstorms and Rain,20,2013-01-13 00:35:00
7:15 PM,55.4,55.4,100,29.77,-9999.0,NNW,9.2,-,0.74,Rain-Thunderstorm,Thunderstorms and Rain,340,2013-01-13 01:15:00
7:35 PM,51.8,51.8,100,29.76,-9999.0,NNE,11.5,16.1,0.89,Rain-Thunderstorm,Thunderstorms and Rain,20,2013-01-13 01:35:00
7:55 PM,51.8,50.0,94,29.74,-9999.0,NE,5.8,17.3,0.01,,Unknown,40,2013-01-13 01:55:00
8:15 PM,51.8,51.8,100,29.74,-9999.0,NNE,4.6,-,N/A,,Unknown,30,2013-01-13 02:15:00
8:35 PM,51.8,51.8,100,29.72,-9999.0,North,8.1,19.6,0.04,Rain,Heavy Rain,350,2013-01-13 02:35:00
8:55 PM,51.8,51.8,100,29.70,10.0,NNW,8.1,-,0.01,Rain,Light Rain,330,2013-01-13 02:55:00
9:15 PM,50.0,50.0,100,29.68,10.0,North,12.7,19.6,0.15,Rain,Rain,360,2013-01-13 03:15:00
9:35 PM,44.6,44.6,100,29.73,-9999.0,WNW,25.3,41.4,0.41,Rain,Rain,300,2013-01-13 03:35:00
9:55 PM,44.6,44.6,100,29.75,5.0,NW,23.0,28.8,0.18,Rain,Rain,320,2013-01-13 03:55:00
10:15 PM,42.8,42.8,100,29.77,10.0,NW,20.7,26.5,0.24,Rain,Light Rain,320,2013-01-13 04:15:00
10:35 PM,42.8,42.8,100,29.76,10.0,NNW,20.7,28.8,0.28,Rain,Light Rain,340,2013-01-13 04:35:00
10:55 PM,41.0,41.0,100,29.72,10.0,North,20.7,32.2,N/A,Rain,Light Rain,360,2013-01-13 04:55:00
11:15 PM,39.2,39.2,100,29.75,10.0,NNW,17.3,-,0.03,Rain,Rain,340,2013-01-13 05:15:00
11:35 PM,39.2,39.2,100,29.78,10.0,NNW,10.4,18.4,0.06,Rain,Rain,340,2013-01-13 05:35:00
11:55 PM,39.2,39.2,100,29.82,10.0,NNW,12.7,20.7,0.02,Rain,Rain,330,2013-01-13 05:55:00